Weather History for KLHQ - May, 2012

Change the Weather History Date:

Monday, May 21, 2012

  Actual Average (KCMH) Record (KCMH)
Temperature  
Mean Temperature 70 °F 64 °F  
Max Temperature 86 °F 74 °F 92 °F (1941)
Min Temperature 55 °F 54 °F 34 °F (1883)
Degree Days  
Heating Degree Days 0 4  
Month to date heating degree days 117  
Since 1 July heating degree days 5199  
Cooling Degree Days 4 3  
Month to date cooling degree days 35  
Year to date cooling degree days 47  
Growing Degree Days 20 (Base 50)    
Moisture  
Dew Point 58 °F    
Average Humidity 69    
Maximum Humidity 96    
Minimum Humidity 36    
Precipitation  
Precipitation 0.49 in 0.14 in 1.83 in (1901)
Month to date precipitation 2.73  
Year to date precipitation 14.13  
Snow  
Snow 0.00 in 0.00 in 0.00 in ()
Month to date snowfall 0.0  
Since 1 July snowfall 26.7  
Snow Depth -    
Sea Level Pressure  
Sea Level Pressure 29.95 in    
Wind  
Wind Speed 4 mph (NW)    
Max Wind Speed 29 mph    
Max Gust Speed 36 mph    
Visibility 8 miles    
Events Rain , Thunderstorm    
T = Trace of Precipitation, MM = Missing Value Source: NWS Daily Summary

Daily Weather History Graph

Daily Weather History Graph

Search for Another Location

Airport or City:

Trip Planner

Search our weather history database for the weather conditions in past years. The results will help you decide how hot, cold, wet, or windy it might be!

Date:

Astronomy

May. 21, 2012 Rise Set
Actual Time 6:10 AM EDT 8:44 PM EDT
Civil Twilight 5:39 AM EDT 9:15 PM EDT
Nautical Twilight 5:00 AM EDT 9:54 PM EDT
Astronomical Twilight 4:17 AM EDT 10:37 PM EDT
Moon 6:32 AM EDT (5/21) 9:33 PM EDT (5/21)
Length of Visible Light 15h 35m
Length of Day
14h 33m
New Moon, 0% of the Moon is Illuminated
May 21
New Moon
May 28
First Quarter
Jun 4
Full
Jun 11
Last Quarter
Jun 19
New

Hourly Weather History & Observations

Time (EDT) Temp. Heat Index Dew Point Humidity Pressure Visibility Wind Dir Wind Speed Gust Speed Precip Events Conditions
12:53 AM 60.1 °F - 57.9 °F 93% 30.04 in 8.0 mi Calm Calm - N/A   Clear
1:53 AM 59.0 °F - 57.0 °F 93% 30.03 in 9.0 mi Calm Calm - N/A   Clear
2:53 AM 57.0 °F - 55.9 °F 96% 30.02 in 6.0 mi Calm Calm - N/A   Clear
3:53 AM 55.9 °F - 54.0 °F 93% 30.01 in 5.0 mi WSW 3.5 mph - N/A   Partly Cloudy
4:53 AM 57.9 °F - 55.9 °F 93% 30.01 in 7.0 mi Calm Calm - N/A   Scattered Clouds
5:53 AM 59.0 °F - 57.0 °F 93% 30.01 in 7.0 mi Calm Calm - N/A   Scattered Clouds
6:53 AM 59.0 °F - 57.0 °F 93% 30.01 in 5.0 mi Variable 3.5 mph - N/A   Partly Cloudy
7:53 AM 64.9 °F - 59.0 °F 81% 30.02 in 9.0 mi Calm Calm - N/A   Mostly Cloudy
8:53 AM 70.0 °F - 57.9 °F 65% 30.00 in 10.0 mi South 4.6 mph - N/A   Clear
9:53 AM 73.9 °F - 57.9 °F 57% 29.99 in 10.0 mi Calm Calm - N/A   Clear
10:53 AM 79.0 °F - 55.9 °F 45% 29.99 in 10.0 mi Calm Calm - N/A   Clear
11:53 AM 81.0 °F 80.8 °F 55.9 °F 42% 29.98 in 10.0 mi Variable 3.5 mph - N/A   Clear
12:53 PM 82.0 °F 81.7 °F 57.0 °F 42% 29.96 in 10.0 mi Calm Calm - N/A   Clear
1:53 PM 84.0 °F 83.3 °F 57.0 °F 40% 29.94 in 10.0 mi Variable 4.6 mph - N/A   Clear
2:53 PM 84.9 °F 83.6 °F 55.0 °F 36% 29.92 in 10.0 mi Calm Calm - N/A   Mostly Cloudy
3:53 PM 82.0 °F 81.4 °F 55.0 °F 39% 29.91 in 10.0 mi East 6.9 mph - N/A   Overcast
4:53 PM 82.9 °F 82.0 °F 55.0 °F 38% 29.88 in 10.0 mi NE 8.1 mph - N/A   Clear
5:53 PM 82.9 °F 82.6 °F 57.9 °F 42% 29.87 in 10.0 mi SSW 5.8 mph - N/A   Clear
6:53 PM 81.0 °F 81.1 °F 57.9 °F 45% 29.87 in 10.0 mi SSE 6.9 mph - N/A   Partly Cloudy
7:53 PM 78.1 °F - 59.0 °F 52% 29.88 in 9.0 mi NNW 16.1 mph 21.9 mph N/A   Mostly Cloudy
8:12 PM 73.4 °F - 60.8 °F 65% 29.91 in 1.8 mi NNW 28.8 mph 35.7 mph 0.06 in Rain Heavy Rain
8:16 PM 68.0 °F - 60.8 °F 78% 29.91 in 0.8 mi North 19.6 mph 35.7 mph 0.20 in Rain Heavy Rain
8:26 PM 69.8 °F - 62.6 °F 78% 29.91 in 1.2 mi North 13.8 mph 21.9 mph 0.39 in Rain Heavy Rain
8:30 PM 68.0 °F - 62.6 °F 83% 29.91 in 2.5 mi NNW 11.5 mph 21.9 mph 0.41 in Rain Heavy Rain
8:38 PM 68.0 °F - 62.6 °F 83% 29.92 in 4.0 mi NNW 11.5 mph - 0.43 in Rain Heavy Rain
8:46 PM 68.0 °F - 60.8 °F 78% 29.92 in 4.0 mi NNW 8.1 mph - 0.45 in Rain , Thunderstorm Thunderstorms and Rain
8:53 PM 68.0 °F - 61.0 °F 78% 29.91 in 7.0 mi NNW 6.9 mph - 0.46 in Rain , Thunderstorm Light Thunderstorms and Rain
9:01 PM 68.0 °F - 62.6 °F 83% 29.91 in 8.0 mi NNW 4.6 mph - 0.00 in Rain Light Rain
9:53 PM 70.0 °F - 62.1 °F 76% 29.91 in 10.0 mi NNW 8.1 mph - 0.03 in   Mostly Cloudy
10:53 PM 69.1 °F - 59.0 °F 70% 29.93 in 10.0 mi WNW 8.1 mph - N/A   Mostly Cloudy
11:16 PM 68.0 °F - 60.8 °F 78% 29.95 in 10.0 mi West 5.8 mph - N/A   Mostly Cloudy
11:53 PM 66.0 °F - 59.0 °F 78% 29.93 in 10.0 mi WNW 6.9 mph - N/A   Overcast